EW1708 Weather Reports


time (UTC)temp
F
wind
direction
speed
knots
gust
knots
rain 1hr
in
rain 24hr
in
rain mn
in
humidity
%
barometer
mb
20260505194525 43 0 12.2 21.7 0.00 0.00 0.00 37 1015.7
20260505193544 43 286 13.0 23.5 0.00 0.00 0.00 36 1015.8
20260505192551 43 0 12.2 26.9 0.00 0.00 0.00 36 1015.8
20260505191552 42 0 12.2 26.9 0.00 0.00 0.00 37 1015.7
20260505190518 42 340 13.9 20.9 0.00 0.00 0.00 38 1015.8
20260505185517 42 0 11.3 23.5 0.00 0.00 0.00 37 1015.7
20260505184500 42 0 12.2 23.5 0.00 0.00 0.00 37 1015.8
20260505182318 41 0 13.9 21.7 0.00 0.00 0.00 37 1015.6
20260505181310 41 304 13.0 23.5 0.00 0.00 0.00 38 1015.7
20260505173955 39 292 13.0 21.7 0.00 0.00 0.00 40 1015.9
20260505172927 39 330 13.9 21.7 0.00 0.00 0.00 42 1015.9
20260505171901 38 0 12.2 20.9 0.00 0.00 0.00 44 1015.8
20260505170834 38 0 13.0 25.2 0.00 0.00 0.00 47 1016.0
20260505165755 37 0 13.0 25.2 0.00 0.00 0.00 48 1016.0
20260505164758 37 0 13.0 21.7 0.00 0.00 0.00 46 1016.0
20260505163726 37 0 13.9 21.7 0.00 0.00 0.00 47 1016.1
20260505162704 37 0 13.0 22.6 0.00 0.00 0.00 46 1016.1
20260505161658 37 0 14.8 22.6 0.00 0.00 0.00 47 1016.0
20260505160703 36 0 12.2 21.7 0.00 0.00 0.00 49 1015.9
20260505152412 35 336 12.2 20.9 0.00 0.00 0.00 52 1016.1
20260505151408 36 336 11.3 20.0 0.00 0.00 0.00 50 1016.0
20260505150358 35 355 11.3 19.1 0.00 0.00 0.00 53 1016.2
20260505140328 33 0 12.2 19.1 0.00 0.00 0.00 65 1015.8
20260505124054 30 292 7.0 11.3 0.00 0.00 0.00 73 1014.8
20260505123059 29 288 5.2 7.8 0.00 0.00 0.00 74 1014.8
20260505122054 29 290 3.5 7.8 0.00 0.00 0.00 74 1014.7
20260505121018 29 286 5.2 7.8 0.00 0.00 0.00 73 1014.6
20260505114851 28 290 4.3 7.0 0.00 0.00 0.00 74 1014.4
20260505113904 28 275 5.2 7.8 0.00 0.00 0.00 74 1014.3
20260505112844 28 277 5.2 7.8 0.00 0.00 0.00 74 1014.2
20260505111818 27 281 4.3 7.0 0.00 0.00 0.00 75 1014.2
20260505110804 27 283 4.3 5.2 0.00 0.00 0.00 75 1014.1
20260505101444 28 298 3.5 5.2 0.00 0.00 0.00 72 1013.6
20260505100443 28 304 3.5 7.0 0.00 0.00 0.00 71 1013.5
20260505095415 29 311 4.3 7.0 0.00 0.00 0.00 70 1013.4
20260505094409 29 329 4.3 7.0 0.00 0.00 0.00 68 1013.3
20260505093347 30 325 4.3 7.0 0.00 0.00 0.00 66 1013.2
20260505092314 30 344 4.3 7.8 0.00 0.00 0.00 64 1013.0
20260505091314 31 11 5.2 8.7 0.00 0.00 0.00 63 1012.9
20260505090313 32 350 6.1 10.4 0.00 0.00 0.00 60 1012.9
20260505083048 35 344 7.0 12.2 0.00 0.00 0.00 58 1012.6
20260505082058 36 315 7.8 12.2 0.00 0.00 0.00 59 1012.5
20260505075910 36 337 7.8 12.2 0.00 0.00 0.00 64 1012.4
20260505074858 36 0 7.8 12.2 0.00 0.00 0.00 64 1012.4
20260505073846 36 318 7.8 11.3 0.00 0.00 0.00 64 1012.4
20260505072824 36 317 7.0 11.3 0.00 0.00 0.00 63 1012.4
20260505071840 36 331 7.0 9.6 0.00 0.00 0.00 64 1012.5
20260505064553 37 320 7.0 12.2 0.00 0.00 0.00 65 1012.4
20260505063601 37 321 7.0 12.2 0.00 0.00 0.00 65 1012.4
20260505062536 37 319 7.8 11.3 0.00 0.00 0.00 65 1012.4
20260505061559 37 313 7.8 15.6 0.00 0.00 0.00 65 1012.2
20260505055409 37 329 7.8 13.0 0.00 0.00 0.00 66 1012.1
20260505054406 37 306 6.1 10.4 0.00 0.00 0.00 67 1012.1
20260505053347 37 324 7.0 10.4 0.00 0.00 0.00 68 1012.1
20260505051246 36 0 7.0 11.3 0.00 0.00 0.00 70 1012.0
20260505050237 36 311 8.7 12.2 0.00 0.00 0.00 71 1012.0
20260505041312 38 329 8.7 18.2 0.00 0.00 0.00 66 1011.8
20260505040234 38 0 10.4 18.2 0.00 0.00 0.00 67 1011.7
20260505034044 38 315 12.2 16.5 0.00 0.00 0.00 64 1011.5
20260505033014 38 317 8.7 16.5 0.00 0.00 0.00 64 1011.4
20260505032006 38 0 10.4 16.5 0.00 0.00 0.00 64 1011.4
20260505030935 38 0 9.6 15.6 0.00 0.00 0.00 64 1011.3
20260505025925 39 346 10.4 15.6 0.00 0.00 0.00 63 1011.2
20260505023817 40 310 13.0 20.0 0.00 0.00 0.00 57 1011.0
20260505022736 39 0 12.2 20.0 0.00 0.00 0.00 57 1010.8
20260505021735 40 308 13.0 21.7 0.00 0.00 0.00 56 1010.7
20260505014404 40 321 13.9 19.1 0.00 0.00 0.00 55 1010.3
20260505012301 41 334 13.9 20.9 0.00 0.00 0.00 53 1010.1
20260505010112 41 324 17.4 23.5 0.00 0.00 0.00 53 1010.1
20260505005038 41 334 17.4 23.5 0.00 0.00 0.00 52 1010.1
20260505004035 41 306 14.8 22.6 0.00 0.00 0.00 54 1010.0
20260505003043 41 319 14.8 22.6 0.00 0.00 0.00 55 1009.9
20260505002054 41 317 13.0 21.7 0.00 0.00 0.00 56 1010.0
20260505001041 41 330 12.2 26.1 0.00 0.00 0.00 58 1009.9
20260505000031 41 336 15.6 26.1 0.00 0.00 0.00 58 1009.9
20260504235036 41 323 12.2 20.9 0.00 0.00 0.00 55 1009.8
20260504234006 41 336 13.9 26.1 0.00 0.00 0.00 56 1009.8
20260504233015 41 321 16.5 26.1 0.00 0.00 0.00 51 1009.7
20260504231952 41 0 16.5 24.3 0.00 0.00 0.00 52 1009.4
20260504230931 41 300 15.6 24.3 0.00 0.00 0.00 51 1009.3
20260504225858 41 306 16.5 25.2 0.00 0.00 0.00 51 1009.2
20260504223724 41 313 15.6 26.9 0.00 0.00 0.00 51 1009.2
20260504222720 41 347 18.2 26.9 0.00 0.00 0.00 51 1009.0
20260504221718 42 323 19.1 28.7 0.00 0.00 0.00 49 1009.1
20260504220719 42 319 19.1 28.7 0.00 0.00 0.00 49 1009.0
20260504215725 42 294 20.0 26.9 0.00 0.00 0.00 48 1008.8
20260504214707 42 327 18.2 27.8 0.00 0.00 0.00 48 1008.8
20260504213701 42 325 20.0 27.8 0.00 0.00 0.00 47 1008.8
20260504212710 42 319 17.4 26.9 0.00 0.00 0.00 47 1008.7
20260504211637 42 312 17.4 30.4 0.00 0.00 0.00 47 1008.6
20260504210630 42 310 18.2 30.4 0.00 0.00 0.00 49 1008.5
20260504205616 42 300 17.4 26.9 0.00 0.00 0.00 47 1008.5
20260504204620 42 329 17.4 26.9 0.00 0.00 0.00 49 1008.5
20260504203641 43 291 16.5 28.7 0.00 0.00 0.00 48 1008.5
20260504202704 43 0 19.1 28.7 0.00 0.00 0.00 46 1008.4
20260504201728 42 323 18.2 28.7 0.00 0.00 0.00 48 1008.3
20260504200711 42 319 15.6 26.1 0.00 0.00 0.00 49 1008.4
20260504195705 42 318 16.5 26.9 0.00 0.00 0.00 47 1008.2
20260504194647 42 0 14.8 26.1 0.00 0.00 0.00 48 1008.2